OBJECT B

基本信息
目录编号:
69503
目录名称:
OBJECT B
国际标识:
2026-132B
轨道中心:
EARTH
物体状态:
在轨
发射日期:
2026-06-12 UTC
国别:
(TBD)
轨道信息
数据来源: 国际轨道数据
星历时间: 2026-06-12T11:34:17+0800
半长轴: 6946.01km
偏心率: 0.0011174
轨道倾角: 97.706°
近地点辐角: 265.755°
升交点赤经: 226.908°
平近点角: 94.240°
近地点: 560.111km
远地点: 575.635km
周期: 96.020分钟
每日圈数: 14.996838
详细信息
发射场:
TNSTA
轨道高度:
LEO
数据来源:
AOE Integration Group
参考系:
TEME
时间系统:
UTC
历元类型:
SGP4
2D轨道图
3D轨道图
轨道高度分析图
轨道倾角分析图
轨道综合分析图
查看轨道综合分析图